Weather History for Cedar Rapids, IA

Change the Weather History Date:

Saturday, August 10, 2013

  Actual Average Record
Temperature  
Mean Temperature 67 °F 72 °F  
Max Temperature 80 °F 82 °F 98 °F (1983)
Min Temperature 53 °F 62 °F 47 °F (1924)
Degree Days  
Heating Degree Days 0 0  
Month to date heating degree days 0 0  
Since 1 June heating degree days 41 33  
Since 1 July heating degree days 13 4  
Cooling Degree Days 2 7  
Month to date cooling degree days 50 72  
Year to date cooling degree days 530 539  
Since 1 June cooling degree days 456 490  
Growing Degree Days 17 (Base 50)    
Moisture  
Dew Point 55 °F    
Average Humidity 67    
Maximum Humidity 93    
Minimum Humidity 40    
Precipitation  
Precipitation 0.00 in 0.14 in 1.84 in (1974)
Month to date precipitation 0.06 1.41  
Year to date precipitation 29.35 22.23  
Sea Level Pressure  
Sea Level Pressure 30.14 in    
Wind  
Wind Speed 4 mph (NW)    
Max Wind Speed 13 mph    
Max Gust Speed 23 mph    
Visibility 10 miles    
Events      
T = Trace of Precipitation, MM = Missing Value Source: NWS Daily Summary

Daily Weather History Graph

Daily Weather History Graph

Search for Another Location

Airport:

Trip Planner

Search our weather history database for the weather conditions in past years. The results will help you decide how hot, cold, wet, or windy it might be!

Date:

Astronomy

Aug. 10, 2013 Rise Set
Actual Time 6:10 AM CDT 8:13 PM CDT
Civil Twilight 5:39 AM CDT 8:43 PM CDT
Nautical Twilight 5:02 AM CDT 9:21 PM CDT
Astronomical Twilight 4:21 AM CDT 10:01 PM CDT
Moon 10:01 AM CDT (8/10) 9:50 PM CDT (8/10)
Length of Visible Light 15h 04m
Length of Day
14h 03m
Waxing Crescent, 14% of the Moon is Illuminated
Aug 10
Waxing Crescent
Aug 14
First Quarter
Aug 20
Full
Aug 28
Last Quarter
Sep 5
New

Hourly Weather History & Observations

Time (CDT) Temp. Heat Index Dew Point Humidity Pressure Visibility Wind Dir Wind Speed Gust Speed Precip Events Conditions
12:52 AM 61.0 °F - 57.0 °F 87% 30.12 in 9.0 mi NW 4.6 mph - N/A   Clear
1:52 AM 60.1 °F - 55.9 °F 86% 30.12 in 10.0 mi NW 3.5 mph - N/A   Clear
2:52 AM 57.9 °F - 54.0 °F 87% 30.13 in 10.0 mi NNW 4.6 mph - N/A   Clear
3:52 AM 55.9 °F - 53.1 °F 90% 30.14 in 10.0 mi NW 5.8 mph - N/A   Clear
4:52 AM 55.0 °F - 52.0 °F 89% 30.15 in 10.0 mi NNW 5.8 mph - N/A   Clear
5:52 AM 54.0 °F - 51.1 °F 90% 30.15 in 10.0 mi NW 5.8 mph - N/A   Clear
6:52 AM 55.0 °F - 52.0 °F 89% 30.16 in 9.0 mi NNW 3.5 mph - N/A   Clear
7:52 AM 60.1 °F - 55.0 °F 83% 30.16 in 10.0 mi Calm Calm - N/A   Clear
8:52 AM 64.9 °F - 57.0 °F 75% 30.17 in 10.0 mi Calm Calm - N/A   Clear
9:52 AM 70.0 °F - 57.9 °F 65% 30.18 in 10.0 mi West 3.5 mph - N/A   Clear
10:52 AM 73.9 °F - 52.0 °F 46% 30.18 in 10.0 mi Calm Calm - N/A   Clear
11:52 AM 77.0 °F - 53.1 °F 43% 30.19 in 10.0 mi NW 6.9 mph - N/A   Clear
12:52 PM 77.0 °F - 52.0 °F 42% 30.17 in 10.0 mi NW 4.6 mph - N/A   Clear
1:52 PM 77.0 °F - 53.1 °F 43% 30.17 in 10.0 mi Variable 4.6 mph - N/A   Partly Cloudy
2:52 PM 80.1 °F 80.1 °F 55.0 °F 42% 30.16 in 10.0 mi NW 6.9 mph - N/A   Scattered Clouds
3:52 PM 79.0 °F - 54.0 °F 42% 30.14 in 10.0 mi NNW 9.2 mph - N/A   Scattered Clouds
4:52 PM 79.0 °F - 55.9 °F 45% 30.13 in 10.0 mi NNW 8.1 mph - N/A   Partly Cloudy
5:52 PM 78.1 °F - 57.0 °F 48% 30.13 in 10.0 mi NW 6.9 mph - N/A   Clear
6:52 PM 77.0 °F - 57.0 °F 50% 30.12 in 10.0 mi NNW 5.8 mph - N/A   Clear
7:52 PM 75.0 °F - 57.0 °F 53% 30.11 in 10.0 mi Calm Calm - N/A   Clear
8:52 PM 69.1 °F - 57.0 °F 65% 30.11 in 10.0 mi Calm Calm - N/A   Clear
9:52 PM 64.9 °F - 57.9 °F 78% 30.11 in 10.0 mi ESE 5.8 mph - N/A   Clear
10:52 PM 62.1 °F - 59.0 °F 90% 30.12 in 10.0 mi Calm Calm - N/A   Clear
11:52 PM 63.0 °F - 59.0 °F 87% 30.11 in 10.0 mi SSE 4.6 mph - N/A   Clear